When you browse on this site, cookies collect data to enhance your experience and personalize the content and advertising you see.
Visit our Privacy Policy to learn more. By continuing to use the site, you agree to this use of cookies and data.
  • In Spain
  • List of Countries
  • For 7 days
  • Water Temperature
  • Satellite Maps
  • Weather Map
  • Weather Widgets
  • user-avatar
    Login

    Hourly Weather Bhubaneswar

    Today, 20 April, Saturday

    Time Temperature Precipitation Wind Pressure Humidity
    00:00 +27°C° 0 mm 0 mps 754 mmHg 75%
    01:00 +29°C° 0 mm 1 mps 754 mmHg 76%
    02:00 +29°C° 0 mm 1 mps 754 mmHg 78%
    03:00 +29°C° 0 mm 1 mps 753 mmHg 79%
    04:00 +28°C° 0 mm 1 mps 753 mmHg 81%
    05:00 +28°C° 0 mm 1 mps 753 mmHg 83%
    06:00 +27°C° 0 mm 1 mps 754 mmHg 81%
    07:00 +29°C° 0 mm 2 mps 754 mmHg 72%
    08:00 +31°C° 0 mm 2 mps 754 mmHg 62%
    09:00 +34°C° 0 mm 3 mps 754 mmHg 53%
    10:00 +36°C° 0 mm 3 mps 754 mmHg 48%
    11:00 +38°C° 0 mm 3 mps 754 mmHg 43%
    12:00 +39°C° 0 mm 3 mps 754 mmHg 37%
    13:00 +40°C° 0 mm 3 mps 753 mmHg 35%
    14:00 +40°C° 0 mm 3 mps 752 mmHg 33%
    15:00 +42°C° 0 mm 3 mps 752 mmHg 32%
    16:00 +40°C° 0.3 mm 4 mps 751 mmHg 40%
    17:00 +37°C° 0.3 mm 5 mps 751 mmHg 48%
    18:00 +34°C° 0 mm 5 mps 751 mmHg 58%
    19:00 +33°C° 0 mm 5 mps 751 mmHg 62%
    20:00 +33°C° 0 mm 5 mps 752 mmHg 65%
    21:00 +32°C° 0 mm 4 mps 752 mmHg 68%
    22:00 +32°C° 0 mm 4 mps 752 mmHg 70%
    23:00 +30°C° 0 mm 4 mps 752 mmHg 71%

    Tomorrow, 21 April, Sunday

    Time Temperature Precipitation Wind Pressure Humidity
    00:00 +30°C° 0 mm 4 mps 752 mmHg 73%
    01:00 +30°C° 0 mm 4 mps 752 mmHg 74%
    02:00 +30°C° 0 mm 4 mps 752 mmHg 74%
    03:00 +30°C° 0 mm 4 mps 751 mmHg 75%
    04:00 +30°C° 0 mm 3 mps 751 mmHg 74%
    05:00 +30°C° 0 mm 3 mps 751 mmHg 73%
    06:00 +30°C° 0 mm 3 mps 752 mmHg 72%
    07:00 +33°C° 0 mm 3 mps 752 mmHg 64%
    08:00 +35°C° 0 mm 3 mps 753 mmHg 55%
    09:00 +37°C° 0 mm 4 mps 753 mmHg 47%
    10:00 +38°C° 0 mm 4 mps 753 mmHg 40%
    11:00 +41°C° 0 mm 4 mps 753 mmHg 34%
    12:00 +43°C° 0 mm 5 mps 753 mmHg 27%
    13:00 +43°C° 0 mm 5 mps 752 mmHg 27%
    14:00 +42°C° 0 mm 5 mps 751 mmHg 27%
    15:00 +42°C° 0 mm 5 mps 750 mmHg 27%
    16:00 +39°C° 0.6 mm 5 mps 750 mmHg 32%
    17:00 +36°C° 0.6 mm 5 mps 750 mmHg 37%
    18:00 +33°C° 0.6 mm 5 mps 750 mmHg 41%
    19:00 +33°C° 0.1 mm 4 mps 751 mmHg 43%
    20:00 +33°C° 0.1 mm 4 mps 752 mmHg 45%
    21:00 +32°C° 0.1 mm 4 mps 752 mmHg 47%
    22:00 +31°C° 0 mm 3 mps 753 mmHg 47%
    23:00 +31°C° 0 mm 2 mps 753 mmHg 47%

    Day after tomorrow, 22 April, Monday

    Time Temperature Precipitation Wind Pressure Humidity
    00:00 +30°C° 0 mm 1 mps 753 mmHg 47%
    01:00 +30°C° 0 mm 1 mps 753 mmHg 49%
    02:00 +30°C° 0 mm 2 mps 752 mmHg 50%
    03:00 +30°C° 0 mm 2 mps 752 mmHg 51%
    04:00 +30°C° 0 mm 2 mps 751 mmHg 50%
    05:00 +30°C° 0 mm 2 mps 751 mmHg 49%
    06:00 +30°C° 0 mm 2 mps 751 mmHg 48%
    07:00 +31°C° 0 mm 2 mps 752 mmHg 45%
    08:00 +32°C° 0 mm 1 mps 752 mmHg 42%
    09:00 +33°C° 0 mm 1 mps 753 mmHg 39%
    10:00 +36°C° 0 mm 2 mps 753 mmHg 35%
    11:00 +38°C° 0 mm 2 mps 753 mmHg 31%
    12:00 +40°C° 0 mm 3 mps 753 mmHg 26%
    13:00 +40°C° 0 mm 3 mps 752 mmHg 26%
    14:00 +42°C° 0 mm 3 mps 752 mmHg 26%
    15:00 +42°C° 0 mm 4 mps 751 mmHg 26%
    16:00 +40°C° 0 mm 4 mps 751 mmHg 33%
    17:00 +39°C° 0 mm 5 mps 751 mmHg 40%
    18:00 +36°C° 0 mm 6 mps 750 mmHg 46%
    19:00 +35°C° 0 mm 5 mps 751 mmHg 54%
    20:00 +33°C° 0 mm 4 mps 752 mmHg 62%
    21:00 +31°C° 0 mm 2 mps 753 mmHg 69%
    22:00 +31°C° 0 mm 3 mps 753 mmHg 73%
    23:00 +30°C° 0 mm 3 mps 753 mmHg 76%

    23 April, Tuesday

    Time Temperature Precipitation Wind Pressure Humidity
    00:00 +30°C° 0 mm 3 mps 753 mmHg 80%
    01:00 +30°C° 0 mm 3 mps 752 mmHg 82%
    02:00 +29°C° 0 mm 3 mps 752 mmHg 84%
    03:00 +29°C° 0 mm 3 mps 752 mmHg 86%
    04:00 +29°C° 0 mm 3 mps 752 mmHg 86%
    05:00 +29°C° 0 mm 4 mps 752 mmHg 86%
    06:00 +29°C° 0 mm 4 mps 752 mmHg 85%
    07:00 +32°C° 0 mm 4 mps 753 mmHg 73%
    08:00 +34°C° 0 mm 3 mps 754 mmHg 62%
    09:00 +36°C° 0 mm 3 mps 754 mmHg 50%
    10:00 +38°C° 0 mm 3 mps 754 mmHg 43%
    11:00 +40°C° 0 mm 3 mps 754 mmHg 37%
    12:00 +42°C° 0 mm 3 mps 754 mmHg 31%
    13:00 +42°C° 0 mm 4 mps 753 mmHg 31%
    14:00 +42°C° 0 mm 4 mps 752 mmHg 31%
    15:00 +42°C° 0 mm 5 mps 751 mmHg 31%
    16:00 +40°C° 0.1 mm 5 mps 751 mmHg 41%
    17:00 +38°C° 0.1 mm 6 mps 751 mmHg 50%
    18:00 +35°C° 0.1 mm 7 mps 751 mmHg 59%
    19:00 +34°C° 0 mm 6 mps 752 mmHg 65%
    20:00 +33°C° 0 mm 5 mps 753 mmHg 70%
    21:00 +32°C° 0 mm 4 mps 754 mmHg 75%
    22:00 +32°C° 0 mm 4 mps 754 mmHg 76%
    23:00 +32°C° 0 mm 4 mps 754 mmHg 77%

    24 April, Wednesday

    Time Temperature Precipitation Wind Pressure Humidity
    00:00 +30°C° 0 mm 5 mps 754 mmHg 78%
    01:00 +30°C° 0 mm 4 mps 753 mmHg 79%
    02:00 +30°C° 0 mm 4 mps 753 mmHg 80%
    03:00 +29°C° 0 mm 3 mps 752 mmHg 81%
    04:00 +29°C° 0 mm 3 mps 753 mmHg 83%
    05:00 +29°C° 0 mm 3 mps 753 mmHg 85%
    06:00 +28°C° 0 mm 3 mps 753 mmHg 86%
    07:00 +31°C° 0 mm 3 mps 754 mmHg 73%
    08:00 +34°C° 0 mm 4 mps 754 mmHg 60%
    09:00 +36°C° 0 mm 4 mps 755 mmHg 47%
    10:00 +38°C° 0 mm 4 mps 755 mmHg 40%
    11:00 +41°C° 0 mm 4 mps 754 mmHg 32%
    12:00 +43°C° 0 mm 5 mps 754 mmHg 25%
    13:00 +43°C° 0 mm 5 mps 753 mmHg 28%
    14:00 +44°C° 0 mm 6 mps 752 mmHg 30%
    15:00 +44°C° 0 mm 6 mps 751 mmHg 33%
    16:00 +40°C° 0 mm 7 mps 751 mmHg 42%
    17:00 +38°C° 0 mm 7 mps 751 mmHg 51%
    18:00 +35°C° 0 mm 7 mps 751 mmHg 60%
    19:00 +34°C° 0 mm 7 mps 752 mmHg 63%
    20:00 +33°C° 0 mm 6 mps 752 mmHg 67%
    21:00 +32°C° 0 mm 6 mps 753 mmHg 71%
    22:00 +32°C° 0 mm 6 mps 753 mmHg 72%
    23:00 +32°C° 0 mm 5 mps 753 mmHg 73%

    25 April, Thursday

    Time Temperature Precipitation Wind Pressure Humidity
    00:00 +30°C° 0 mm 5 mps 753 mmHg 74%
    01:00 +30°C° 0 mm 5 mps 752 mmHg 75%
    02:00 +30°C° 0 mm 5 mps 752 mmHg 75%
    03:00 +30°C° 0 mm 5 mps 751 mmHg 76%
    04:00 +29°C° 0 mm 4 mps 752 mmHg 77%
    05:00 +29°C° 0 mm 3 mps 752 mmHg 78%
    06:00 +29°C° 0 mm 2 mps 753 mmHg 79%
    07:00 +31°C° 0 mm 3 mps 753 mmHg 69%
    08:00 +34°C° 0 mm 4 mps 754 mmHg 60%
    09:00 +37°C° 0 mm 5 mps 754 mmHg 50%
    10:00 +39°C° 0 mm 5 mps 754 mmHg 45%
    11:00 +41°C° 0 mm 6 mps 753 mmHg 39%
    12:00 +44°C° 0 mm 6 mps 753 mmHg 34%
    13:00 +44°C° 0 mm 6 mps 752 mmHg 34%
    14:00 +44°C° 0 mm 7 mps 751 mmHg 35%
    15:00 +43°C° 0 mm 7 mps 751 mmHg 35%
    16:00 +40°C° 0 mm 7 mps 750 mmHg 42%
    17:00 +38°C° 0 mm 7 mps 750 mmHg 48%
    18:00 +35°C° 0 mm 7 mps 750 mmHg 55%
    19:00 +34°C° 0 mm 7 mps 751 mmHg 60%
    20:00 +33°C° 0 mm 7 mps 751 mmHg 66%
    21:00 +32°C° 0 mm 7 mps 752 mmHg 71%
    22:00 +32°C° 0 mm 7 mps 752 mmHg 72%
    23:00 +32°C° 0 mm 7 mps 752 mmHg 73%
    Show more